Albert Lea, MN

11:15 AM CDT on October 20, 2017 (GMT -0500)
Albert Lea Municipal

Weather History for KAEL - July, 2013

Change the Weather History Date:

Thursday, July 11, 2013

  Actual Average Record
Temperature  
Mean Temperature 72 °F -  
Max Temperature 84 °F 79 °F 87 °F (2008)
Min Temperature 59 °F 59 °F 53 °F (2007)
Cooling Degree Days 6    
Growing Degree Days 22 (Base 50)    
Moisture  
Dew Point 54 °F    
Average Humidity 55    
Maximum Humidity 88    
Minimum Humidity 25    
Precipitation  
Precipitation 0.00 in - - ()
Sea Level Pressure  
Sea Level Pressure 30.09 in    
Wind  
Wind Speed 3 mph (South)    
Max Wind Speed 14 mph    
Max Gust Speed 17 mph    
Visibility 8 miles    
Events      
Averages and records for this station are not official NWS values.
T = Trace of Precipitation, MM = Missing Value Source: NWS Daily Summary

Daily Weather History Graph

Daily Weather History Graph

Search for Another Location

Airport or City:

Trip Planner

Search our weather history database for the weather conditions in past years. The results will help you decide how hot, cold, wet, or windy it might be!

Date:

Astronomy

Jul. 11, 2013 Rise Set
Actual Time 5:42 AM CDT 8:55 PM CDT
Civil Twilight 5:07 AM CDT 9:30 PM CDT
Nautical Twilight 4:22 AM CDT 10:15 PM CDT
Astronomical Twilight 3:27 AM CDT 11:09 PM CDT
Moon 9:09 AM CDT (7/11) 10:27 PM CDT (7/11)
Length of Visible Light 16h 22m
Length of Day
15h 12m
Waxing Crescent, 11% of the Moon is Illuminated
Jul 11
Waxing Crescent
Jul 15
First Quarter
Jul 22
Full
Jul 29
Last Quarter
Aug 6
New

Hourly Weather History & Observations

Time (CDT) Temp. Dew Point Humidity Pressure Visibility Wind Dir Wind Speed Gust Speed Precip Events Conditions
12:13 AM 64.4 °F 57.2 °F 77% 30.09 in 10.0 mi Calm Calm - N/A   Clear
12:34 AM 62.6 °F 59.0 °F 88% 30.09 in 7.0 mi Calm Calm - N/A   Clear
12:54 AM 62.6 °F 57.2 °F 82% 30.09 in 7.0 mi Calm Calm - N/A   Clear
1:13 AM 62.6 °F 59.0 °F 88% 30.09 in 7.0 mi Calm Calm - N/A   Clear
1:34 AM 62.6 °F 57.2 °F 82% 30.09 in 7.0 mi Calm Calm - N/A   Clear
1:54 AM 62.6 °F 57.2 °F 82% 30.10 in 7.0 mi Calm Calm - N/A   Clear
2:13 AM 62.6 °F 57.2 °F 82% 30.10 in 5.0 mi Calm Calm - N/A   Clear
2:33 AM 60.8 °F 57.2 °F 88% 30.10 in 5.0 mi Calm Calm - N/A   Clear
2:37 AM 60.8 °F 57.2 °F 88% 30.10 in 4.0 mi Calm Calm - N/A   Clear
3:01 AM 60.8 °F 57.2 °F 88% 30.10 in 5.0 mi SSW 1.2 mph - N/A   Clear
3:41 AM 60.8 °F 57.2 °F 88% 30.10 in 3.0 mi Calm Calm - N/A   Clear
4:01 AM 60.8 °F 57.2 °F 88% 30.11 in 3.0 mi South 1.2 mph - N/A   Clear
4:21 AM 60.8 °F 57.2 °F 88% 30.11 in 2.0 mi Calm Calm - N/A   Clear
4:41 AM 60.8 °F 57.2 °F 88% 30.11 in 3.0 mi Calm Calm - N/A   Clear
5:01 AM 60.8 °F 57.2 °F 88% 30.11 in 3.0 mi Calm Calm - N/A   Clear
5:21 AM 60.8 °F 57.2 °F 88% 30.12 in 3.0 mi Calm Calm - N/A   Clear
5:41 AM 59.0 °F 55.4 °F 88% 30.12 in 5.0 mi NNE 1.2 mph - N/A   Clear
6:01 AM 59.0 °F 55.4 °F 88% 30.13 in 2.5 mi Calm Calm - N/A   Clear
6:39 AM 60.8 °F 57.2 °F 88% 30.13 in 2.5 mi Calm Calm - N/A   Clear
6:41 AM 60.8 °F 57.2 °F 88% 30.13 in 2.5 mi Calm Calm - N/A   Clear
7:14 AM 64.4 °F 60.8 °F 88% 30.13 in 4.0 mi Calm Calm - N/A   Clear
7:33 AM 66.2 °F 62.6 °F 88% 30.13 in 5.0 mi Calm Calm - N/A   Clear
7:54 AM 68.0 °F 62.6 °F 83% 30.13 in 5.0 mi Calm Calm - N/A   Haze
8:14 AM 69.8 °F 62.6 °F 78% 30.13 in 5.0 mi Calm Calm - N/A   Haze
8:34 AM 71.6 °F 62.6 °F 73% 30.13 in 7.0 mi Calm Calm - N/A   Clear
8:53 AM 73.4 °F 57.2 °F 57% 30.13 in 7.0 mi Calm Calm - N/A   Clear
9:14 AM 73.4 °F 55.4 °F 53% 30.13 in 7.0 mi South 5.8 mph - N/A   Scattered Clouds
9:33 AM 75.2 °F 55.4 °F 50% 30.13 in 7.0 mi SSW 3.5 mph - N/A   Clear
9:54 AM 75.2 °F 55.4 °F 50% 30.13 in 10.0 mi SSW 4.6 mph - N/A   Clear
10:13 AM 77.0 °F 55.4 °F 47% 30.13 in 7.0 mi Calm Calm - N/A   Clear
10:34 AM 77.0 °F 53.6 °F 44% 30.13 in 10.0 mi SSW 4.6 mph - N/A   Clear
10:53 AM 78.8 °F 51.8 °F 39% 30.13 in 10.0 mi SSE 5.8 mph - N/A   Clear
11:13 AM 78.8 °F 53.6 °F 42% 30.13 in 10.0 mi South 8.1 mph - N/A   Clear
11:33 AM 78.8 °F 51.8 °F 39% 30.12 in 7.0 mi SSW 8.1 mph - N/A   Clear
11:53 AM 80.6 °F 51.8 °F 37% 30.12 in 10.0 mi South 6.9 mph - N/A   Clear
12:14 PM 80.6 °F 51.8 °F 37% 30.12 in 7.0 mi South 6.9 mph - N/A   Clear
12:33 PM 80.6 °F 51.8 °F 37% 30.11 in 10.0 mi South 5.8 mph - N/A   Clear
12:53 PM 80.6 °F 51.8 °F 37% 30.10 in 10.0 mi South 6.9 mph - N/A   Clear
1:14 PM 82.4 °F 48.2 °F 30% 30.10 in 7.0 mi SE 11.5 mph - N/A   Clear
1:33 PM 82.4 °F 50.0 °F 32% 30.10 in 10.0 mi South 5.8 mph - N/A   Clear
1:53 PM 82.4 °F 48.2 °F 30% 30.09 in 7.0 mi SSE 8.1 mph - N/A   Clear
2:13 PM 82.4 °F 46.4 °F 28% 30.08 in 7.0 mi South 8.1 mph - N/A   Clear
2:33 PM 82.4 °F 48.2 °F 30% 30.08 in 10.0 mi SSE 8.1 mph - N/A   Clear
2:54 PM 84.2 °F 48.2 °F 29% 30.08 in 10.0 mi SSE 9.2 mph - N/A   Clear
3:13 PM 84.2 °F 48.2 °F 29% 30.07 in 7.0 mi South 6.9 mph 16.1 mph N/A   Clear
3:33 PM 84.2 °F 48.2 °F 29% 30.07 in 10.0 mi SSE 6.9 mph - N/A   Clear
3:54 PM 84.2 °F 46.4 °F 27% 30.07 in 10.0 mi SSE 10.4 mph - N/A   Clear
4:13 PM 84.2 °F 44.6 °F 25% 30.07 in 10.0 mi SSE 12.7 mph 16.1 mph N/A   Clear
4:33 PM 84.2 °F 48.2 °F 29% 30.07 in 10.0 mi SSE 10.4 mph - N/A   Scattered Clouds
4:54 PM 84.2 °F 48.2 °F 29% 30.06 in 10.0 mi SSE 13.8 mph - N/A   Clear
5:13 PM 84.2 °F 46.4 °F 27% 30.06 in 7.0 mi South 6.9 mph - N/A   Clear
5:34 PM 84.2 °F 44.6 °F 25% 30.06 in 10.0 mi South 10.4 mph 16.1 mph N/A   Clear
5:54 PM 84.2 °F 46.4 °F 27% 30.05 in 10.0 mi South 9.2 mph 17.3 mph N/A   Clear
6:13 PM 82.4 °F 48.2 °F 30% 30.05 in 10.0 mi SSE 8.1 mph - N/A   Clear
6:34 PM 82.4 °F 50.0 °F 32% 30.04 in 10.0 mi South 10.4 mph 16.1 mph N/A   Clear
6:53 PM 82.4 °F 50.0 °F 32% 30.04 in 10.0 mi South 8.1 mph - N/A   Clear
7:13 PM 82.4 °F 48.2 °F 30% 30.04 in 10.0 mi South 9.2 mph - N/A   Clear
7:34 PM 80.6 °F 51.8 °F 37% 30.03 in 10.0 mi South 4.6 mph 9.2 mph N/A   Clear
7:53 PM 80.6 °F 51.8 °F 37% 30.03 in 10.0 mi South 6.9 mph - N/A   Clear
8:13 PM 78.8 °F 51.8 °F 39% 30.03 in 10.0 mi South 8.1 mph - N/A   Clear
8:34 PM 77.0 °F 51.8 °F 41% 30.03 in 10.0 mi South 6.9 mph - N/A   Clear
8:53 PM 75.2 °F 53.6 °F 47% 30.02 in 10.0 mi SSE 8.1 mph - N/A   Clear
9:13 PM 75.2 °F 53.6 °F 47% 30.03 in 10.0 mi South 6.9 mph - N/A   Clear
9:34 PM 75.2 °F 53.6 °F 47% 30.04 in 10.0 mi South 6.9 mph - N/A   Clear
9:53 PM 75.2 °F 53.6 °F 47% 30.04 in 10.0 mi SSE 8.1 mph - N/A   Clear
10:13 PM 73.4 °F 53.6 °F 50% 30.04 in 10.0 mi SSE 9.2 mph - N/A   Clear
10:34 PM 73.4 °F 53.6 °F 50% 30.04 in 10.0 mi South 8.1 mph - N/A   Clear
10:53 PM 73.4 °F 53.6 °F 50% 30.04 in 10.0 mi SSE 9.2 mph - N/A   Clear
11:13 PM 73.4 °F 55.4 °F 53% 30.04 in 10.0 mi South 8.1 mph - N/A   Clear
11:34 PM 71.6 °F 55.4 °F 57% 30.04 in 10.0 mi South 9.2 mph - N/A   Clear
11:53 PM 71.6 °F 55.4 °F 57% 30.05 in 10.0 mi SSE 9.2 mph - N/A   Clear